User: anonymous   Login
Location: Caltech
(34.1382°N, 118.1253°W)
Time: 00:45:28
(UTC-07:00)
Language:

Iridium 95 - Orbit

View from above orbital plane
View from above orbital plane
View from above satellite
View from above satellite

Ground track
Ground track

The orbit data is extracted from the following two-line orbital elements,

1 27375U 02005D   14296.43606239  .00000443  00000-0  15105-3 0  4908
2 27375 086.3967 332.0102 0002244 105.7255 254.4189 14.34223257672206
Epoch (UTC): 23 October 2014 10:27:55
Eccentricity: 0.0002244
inclination: 86.3967°
perigee height: 776 km
apogee height: 779 km
right ascension of ascending node: 332.0102°
argument of perigee: 105.7255°
revolutions per day: 14.34223257
mean anomaly at epoch: 254.4189°
orbit number at epoch: 67220

The dashed part of the orbit path shows where the satellite is in the earth's shadow,  

DLR